Home > Weather > Landeck > Past weeks

Flag for Austria Past Weather in Landeck, Tyrol, Austria — Yesterday and Last 2 Weeks

Now
81 °F

Pleasantly warm.


Feels Like: 81 °F
Forecast: 63 / 93 °F
Wind: 2 mph from Southeast

Location: Landeck

Current Time: Aug 25, 2016 at 1:44:55 PM

Latest Report: Aug 25, 2016 at 1:00 PM


Visibility: N/A

Pressure: 29.97 "Hg (27.42 "Hg at 784m altitude)

Humidity: 37%

Dew Point: 53 °F

Location of LandeckLocation

Past Weather in Landeck — Graph

°F

Landeck Temperature Yesterday

Maximum temperature yesterday: 87 °F (at 4:00 PM)
Minimum temperature yesterday: 55 °F (at 6:00 AM)
Average temperature yesterday: 67 °F

High & Low Weather Summary for the Past Weeks

 TemperatureHumidityPressure
High87 °F (Aug 24, 4:00 PM)94% (Aug 20, 10:00 PM)30.50 "Hg (Aug 20, 10:00 PM)
Low47 °F (Aug 11, 5:00 AM)30% (Aug 24, 4:00 PM)29.72 "Hg (Aug 18, 4:00 PM)
Average63 °F71%30.12 "Hg
* Reported Aug 10 12:00 PM — Aug 25 12:00 PM, Landeck, Weather by CustomWeather, © 2016

Note: Actual official high and low records may vary slightly from our data, if they occured in-between our weather recording intervals... More about our weather records

Advertising

Landeck Weather History for the Previous 24 Hours

Scroll right to see more
 ConditionsComfort  
Time TempWeatherWind HumidityBarometerVisibility
12:00 PM
Thu, Aug 25
76 °FMild.3 mph44%30.03 "HgN/A
11:00 AM73 °FMild.5 mph47%30.09 "HgN/A
10:00 AM69 °FMild.3 mph54%30.13 "HgN/A
9:00 AM64 °FMild.3 mph62%30.17 "HgN/A
8:00 AMN/APassing clouds.14 mphN/AN/A22 mi
7:00 AM57 °FSunny.1 mph85%30.22 "Hg22 mi
6:00 AM57 °FCool.1 mph84%30.21 "HgN/A
5:00 AM58 °FCool.1 mph84%30.21 "HgN/A
4:00 AM59 °FCool.1 mph82%30.21 "HgN/A
3:00 AM60 °FCool.1 mph84%30.21 "HgN/A
2:00 AM61 °FCool.1 mph83%30.20 "HgN/A
1:00 AM61 °FCool.1 mph84%30.21 "HgN/A
12:00 AM63 °FMild.No wind81%30.19 "HgN/A
11:00 PM
Wed, Aug 24
N/APassing clouds.21 mphN/AN/A2 mi
10:00 PM67 °FMild.2 mph72%30.16 "HgN/A
9:00 PM70 °FMild.1 mph66%30.12 "HgN/A
8:00 PM74 °FMild.1 mph58%30.06 "HgN/A
7:00 PM80 °FWarm.1 mph43%30.01 "HgN/A
6:00 PM83 °FPleasantly warm.2 mph38%30.00 "HgN/A
5:00 PM85 °FPleasantly warm.2 mph34%30.00 "HgN/A
4:00 PM87 °FPleasantly warm.3 mph30%30.01 "HgN/A
3:00 PM83 °FPleasantly warm.1 mph37%30.03 "HgN/A
1:00 PM79 °FWarm.1 mph41%30.10 "HgN/A
Weather by CustomWeather, © 2016

See weather overviewHow to use our weather pages